RH
53 69 77 77 77 77 75 71 67 65 67 76 86 89 91 95 97 98 98 97 95 88 77 66 59 53 47 41 36 34 33 32 31 30 29 29 28 28 28 28 28 27 27 27 27 27 27 26 26 25 25 24 24 23 22 21 20 19 18 18 17 18 17 18 19 18 18 20 22 23 24 27 27 28 31 33 33 32 33 35 36 37 38 38 39
38 54 72 80 80 79 79 77 73 67 65 73 87 96 98 98 96 97 99 97 94 89 80 70 62 56 51 45 41 38 37 35 34 32 31 30 29 28 28 28 28 28 28 29 29 29 30 29 28 27 26 25 24 23 22 21 20 19 18 18 18 19 19 19 20 21 21 23 25 26 27 29 31 32 33 35 36 36 36 37 38 40 42 43 43
36 39 56 76 84 82 80 79 74 68 64 69 79 90 97 98 95 95 95 95 93 89 83 74 65 59 55 49 45 42 41 39 37 35 33 32 30 28 28 27 27 28 28 29 29 29 29 29 28 26 25 24 22 21 21 20 19 19 18 18 19 19 19 20 21 22 23 24 26 29 30 31 33 36 36 35 35 34 35 37 39 41 43 45 46
46 37 40 59 79 86 84 82 78 72 69 69 72 77 86 93 96 97 96 94 92 88 86 80 70 62 58 54 49 46 45 43 41 39 36 34 31 29 29 28 28 29 29 30 29 29 28 27 25 24 23 22 21 21 20 20 19 19 19 19 19 19 19 20 20 21 22 23 25 26 27 28 29 32 35 37 37 36 37 38 41 44 46 46 48
54 48 40 43 62 81 87 81 79 80 77 75 73 73 79 85 89 95 98 97 95 90 88 86 76 65 61 57 52 50 49 48 46 42 38 34 32 31 30 30 29 30 30 30 29 28 27 25 24 23 22 22 21 20 20 20 19 19 19 19 18 19 18 19 19 19 19 21 22 24 25 26 27 28 32 38 43 47 48 47 46 48 49 49 49
53 54 50 43 47 67 83 80 75 78 79 78 77 77 81 85 85 89 95 99 99 95 92 92 81 69 64 60 55 54 53 51 48 43 38 35 33 32 32 31 31 30 30 30 29 28 26 24 23 22 21 21 21 20 20 19 19 19 18 18 18 18 18 18 18 18 18 18 20 22 24 26 29 31 33 35 40 46 52 55 55 53 52 53 53
47 49 52 50 45 53 75 84 77 75 77 78 80 83 84 84 84 86 91 96 100 98 96 95 86 73 67 63 60 58 56 52 46 42 38 37 36 35 33 32 32 31 30 30 28 27 25 24 23 21 21 20 20 20 19 19 18 18 17 17 17 16 17 17 17 18 18 19 20 22 24 26 28 30 32 34 37 41 46 53 60 61 61 60 59
45 45 48 52 49 49 64 80 82 80 80 79 81 83 83 84 87 90 91 94 100 100 98 96 89 78 71 66 64 62 58 50 44 41 39 38 38 37 35 33 32 31 31 29 28 26 25 23 22 21 21 20 20 19 19 18 18 17 16 16 16 16 17 17 17 18 18 19 20 21 22 24 27 31 35 38 43 47 49 53 59 63 64 64 62
45 46 47 51 53 50 53 68 79 82 81 83 85 84 86 89 93 95 95 96 100 100 100 99 92 82 75 70 67 65 58 50 44 42 40 39 40 39 37 35 33 32 31 30 28 26 25 24 23 22 21 21 20 19 18 18 17 17 16 16 16 17 17 17 17 18 18 19 21 22 23 24 27 33 39 42 45 48 51 54 59 62 63 66 66
44 46 48 52 56 55 50 57 74 82 80 82 87 88 90 93 95 97 98 99 100 99 100 100 94 86 79 73 70 67 60 52 47 45 42 41 41 41 40 38 35 33 32 30 29 27 25 24 23 22 22 21 20 19 19 18 18 17 17 16 17 18 18 18 19 19 20 20 21 23 25 25 25 28 36 42 45 48 51 54 58 62 63 64 68
47 47 49 52 57 60 54 51 65 81 83 82 85 89 92 95 97 99 100 100 100 99 100 100 95 89 82 75 73 69 62 55 52 50 47 44 42 43 43 41 38 35 33 31 30 28 26 25 24 23 22 21 21 20 19 19 19 18 18 18 19 20 21 21 22 22 22 21 21 22 24 26 27 29 35 43 49 53 54 56 58 61 64 63 65
52 51 52 52 56 63 61 52 55 71 84 89 90 92 95 97 99 100 100 100 100 99 100 100 97 91 83 77 74 70 64 60 58 57 53 49 46 45 45 44 41 38 36 33 31 29 27 26 25 24 23 23 23 22 21 21 20 20 20 21 21 23 23 24 24 24 23 23 23 23 24 29 31 34 38 46 53 56 57 59 60 62 66 66 66
58 57 56 56 56 61 66 60 54 60 76 88 93 96 98 99 100 100 100 100 100 100 100 100 99 93 83 76 73 70 69 67 65 62 58 54 52 50 48 47 45 42 39 36 34 31 29 27 26 26 25 25 24 24 23 23 23 23 23 23 24 25 26 27 26 26 26 26 27 26 26 30 35 39 42 46 53 57 58 62 64 65 68 69 69
60 61 61 62 60 60 66 67 62 59 67 81 92 98 100 100 100 100 100 100 100 100 100 100 100 95 85 77 74 74 74 73 71 68 65 61 58 55 53 51 49 46 42 39 37 34 31 29 28 27 27 27 26 26 25 25 25 26 26 26 28 28 29 29 29 29 29 28 29 29 29 31 34 41 46 50 56 59 60 63 65 66 68 70 73
61 62 63 65 65 63 64 68 70 67 68 79 92 99 100 99 100 100 100 100 100 100 100 100 100 98 90 83 80 80 79 77 75 74 70 67 64 61 58 55 53 50 46 43 41 38 35 32 30 29 29 29 29 28 27 28 28 29 29 30 31 31 31 32 32 32 33 32 31 32 33 36 39 45 50 55 61 64 64 64 65 65 66 68 75
61 64 64 65 68 68 67 67 71 73 74 81 93 100 100 100 100 100 100 100 100 100 100 100 100 100 94 88 85 84 83 83 82 79 73 69 68 66 63 60 58 55 51 47 45 42 39 36 33 32 31 31 31 30 30 30 31 31 32 33 34 34 34 35 36 37 37 37 36 35 36 39 44 48 52 56 60 64 65 66 66 66 66 67 73
63 66 68 68 69 72 73 71 72 75 78 84 93 99 101 100 100 100 100 100 100 100 100 100 100 100 98 94 92 91 92 93 90 83 77 73 72 71 68 66 64 60 56 52 49 46 43 40 37 35 34 34 34 33 32 33 33 34 36 37 37 37 38 39 40 41 41 40 39 38 37 42 48 53 57 60 62 64 65 67 68 69 69 68 69
66 68 72 73 72 73 76 77 77 78 81 87 94 99 100 100 100 100 100 100 100 100 100 100 100 100 100 99 98 98 99 99 95 89 84 79 76 75 73 71 70 66 61 57 54 51 48 45 41 39 38 37 37 36 36 36 36 38 40 41 42 42 42 43 44 45 45 43 42 40 39 42 48 55 62 65 66 66 66 68 69 70 72 72 70
68 69 72 75 77 77 77 80 84 86 88 92 97 99 100 100 100 100 100 100 100 100 100 100 100 100 100 100 100 100 100 100 99 97 93 87 83 81 78 76 75 72 67 62 59 57 54 50 46 43 42 41 40 39 39 40 40 41 43 46 48 48 47 48 49 49 48 46 44 43 43 45 51 58 67 70 70 70 70 71 71 70 72 75 75
66 66 68 74 81 84 83 83 87 93 96 98 100 100 100 100 100 100 100 100 100 100 100 100 100 100 100 100 100 100 100 100 100 100 99 96 92 90 86 82 79 77 73 69 65 62 59 56 51 48 46 45 43 42 42 44 45 45 47 50 52 53 52 53 53 52 50 48 46 46 48 54 60 66 73 75 74 73 73 73 73 72 72 76 79
65 64 64 69 77 85 91 92 93 97 100 100 100 100 100 100 100 100 100 100 100 100 100 100 100 100 100 100 100 100 100 100 100 100 100 100 97 95 93 90 85 82 80 76 70 67 65 62 58 55 52 50 48 46 46 48 49 50 52 54 56 56 57 57 56 53 51 48 47 47 51 60 69 74 77 78 77 76 76 75 74 73 74 79 81
65 63 62 64 69 77 89 98 100 100 100 100 100 100 99 100 100 100 100 100 100 100 100 100 100 100 100 100 100 100 100 100 100 100 100 100 98 95 95 95 91 88 86 82 77 73 71 68 66 63 59 55 53 51 50 52 54 55 57 58 59 59 59 58 57 54 50 47 47 49 53 64 76 81 81 82 80 78 78 78 76 75 77 82 81
64 64 64 65 65 69 81 95 101 100 100 100 100 100 100 100 100 100 100 100 100 100 100 100 100 100 100 100 100 100 100 100 100 100 100 101 99 96 97 98 96 94 92 89 84 79 77 76 73 71 68 63 60 57 56 57 59 60 60 60 61 60 59 58 55 51 48 46 48 53 59 67 78 85 85 85 84 81 81 80 78 78 81 83 79
65 66 67 68 69 69 76 89 99 100 100 100 100 100 100 100 100 100 100 100 100 100 100 100 100 100 100 100 100 100 100 100 100 100 100 100 100 98 99 100 100 99 98 96 90 86 83 83 81 80 77 73 70 66 63 64 65 65 64 63 62 60 58 55 52 48 45 45 48 56 64 72 80 86 87 86 83 82 81 80 80 81 82 82 74
66 68 70 72 74 75 79 88 97 100 100 100 100 100 100 100 100 100 100 100 100 100 100 100 100 100 100 100 100 100 100 100 100 100 100 100 100 100 99 99 100 101 102 100 96 92 89 88 88 87 85 83 80 76 73 72 71 70 68 66 63 60 56 52 48 43 41 43 50 58 69 79 85 86 87 86 84 81 78 78 81 84 83 79 67
66 69 71 75 80 83 88 94 98 100 100 99 100 100 99 100 100 99 100 100 99 100 100 100 100 100 100 100 100 100 100 100 100 100 100 100 100 100 99 98 99 101 101 101 100 97 94 94 94 94 93 92 89 85 82 79 76 74 71 68 64 59 52 47 43 39 37 42 50 61 75 86 90 89 88 86 83 79 75 75 81 85 82 75 61
67 70 73 77 82 88 94 99 100 100 100 99 100 100 99 100 100 99 100 100 100 100 100 99 100 100 100 100 100 100 100 100 100 100 100 100 100 100 100 99 99 100 100 100 101 101 100 100 99 98 98 98 97 93 89 84 80 76 72 68 62 55 48 42 38 34 34 38 49 65 81 91 93 92 90 86 83 79 75 75 80 82 78 69 58
68 71 74 77 82 88 94 99 100 100 100 100 100 100 100 100 100 100 100 100 100 100 100 100 100 100 99 100 100 100 100 100 100 100 100 100 100 100 100 100 100 100 100 100 100 100 101 101 101 100 100 100 100 99 94 87 82 78 72 66 58 49 43 37 32 29 28 34 50 70 86 93 94 93 90 86 83 79 77 79 81 79 72 63 54
71 73 75 79 83 88 92 97 98 98 99 100 100 100 100 100 100 100 100 100 100 100 100 100 100 100 100 100 100 100 100 100 100 100 100 100 100 100 100 100 100 99 100 100 100 100 100 100 101 101 100 100 101 99 94 88 83 77 69 61 51 43 37 32 28 24 23 31 50 71 86 93 95 93 89 86 84 81 80 82 82 76 67 57 50
79 80 82 85 89 92 95 98 99 99 100 100 100 101 100 100 100 100 100 100 100 99 99 99 100 100 100 100 100 100 100 100 101 101 101 101 101 101 100 100 100 100 100 100 100 100 100 100 101 101 100 101 100 98 93 87 80 72 64 55 45 37 32 28 23 19 22 35 57 76 88 94 96 93 89 85 84 84 84 84 81 72 61 53 48
90 91 92 94 96 97 99 101 100 100 100 100 100 100 100 100 100 100 100 100 100 100 100 100 100 100 99 100 100 101 100 99 100 101 102 102 102 101 100 100 100 100 100 100 100 100 100 100 100 100 100 100 99 95 90 83 75 66 57 48 39 33 29 24 19 18 26 47 70 85 92 95 95 92 88 84 82 84 85 84 77 65 55 50 43
94 94 95 96 96 97 98 99 99 99 99 100 100 100 100 101 101 101 101 100 100 100 101 101 100 100 100 99 99 100 100 99 98 100 102 102 102 101 100 100 100 100 100 100 100 100 100 100 100 101 101 99 96 92 86 77 68 59 49 41 35 30 25 21 18 20 35 60 82 92 95 96 94 90 86 82 80 82 84 80 69 57 50 46 34
91 90 91 90 90 91 91 91 92 92 93 94 95 95 96 96 98 100 102 102 101 101 100 101 102 102 102 101 100 100 100 101 101 102 102 102 101 101 100 100 100 100 100 100 100 100 101 100 100 100 99 97 93 86 77 67 59 51 42 35 30 25 21 19 19 26 46 71 89 95 96 95 93 89 85 81 79 81 82 74 62 53 47 37 23
83 82 83 83 83 83 83 83 83 83 83 83 84 85 86 87 88 91 95 99 102 102 100 99 99 99 101 102 101 100 100 101 102 102 101 101 100 100 100 100 100 100 100 100 100 100 101 101 101 100 98 94 87 76 66 58 51 43 36 30 25 21 19 19 24 38 61 83 94 95 95 94 90 86 84 80 80 83 79 66 56 49 40 26 16
76 74 72 70 68 66 64 62 60 59 59 60 60 62 64 66 68 72 75 81 90 98 101 101 99 97 98 99 100 100 101 101 102 101 100 100 100 99 100 100 100 100 101 100 100 100 101 101 101 99 96 90 79 66 57 50 43 37 31 27 25 23 21 24 36 57 80 94 97 95 95 93 89 85 82 80 83 83 72 58 50 43 30 17 12
61 55 48 42 38 35 32 30 28 28 29 31 33 36 39 42 46 51 55 60 69 81 92 100 102 101 100 99 100 102 103 103 103 102 101 101 100 99 100 100 100 100 101 101 101 101 100 100 99 96 90 82 70 59 51 43 37 33 29 28 28 28 27 35 54 78 94 99 98 97 95 92 88 84 80 81 83 77 63 52 46 35 21 14 11
33 27 23 19 18 17 17 17 17 18 19 20 22 25 29 32 36 41 46 53 61 70 81 93 100 103 102 100 99 100 100 101 101 101 101 101 100 100 100 100 100 101 101 101 101 100 98 97 94 88 81 72 62 52 44 38 35 32 30 31 32 32 37 53 76 94 101 100 99 98 96 93 88 82 81 84 81 67 54 48 39 25 17 14 9
17 16 16 16 16 17 18 19 20 21 22 23 24 25 28 31 35 40 45 51 59 68 78 88 96 101 102 103 102 100 100 100 101 101 101 101 101 101 101 100 101 101 100 99 99 96 94 90 85 78 71 63 53 45 40 37 36 35 35 37 38 42 55 77 94 101 102 101 100 98 96 92 86 81 82 83 73 58 49 42 29 18 15 12 10
16 16 17 18 19 20 21 21 22 23 24 25 26 27 29 31 35 39 43 49 56 65 74 84 91 96 99 102 104 104 102 102 102 101 101 101 100 100 99 98 98 97 96 95 93 90 86 82 76 70 64 56 49 44 41 40 40 42 43 45 49 59 77 94 101 102 102 102 101 98 95 89 84 83 85 78 63 51 44 33 21 15 13 10 20
17 17 17 16 16 16 15 16 16 18 19 21 24 27 30 33 36 40 44 49 55 61 69 77 84 87 90 94 97 97 98 99 98 96 95 94 93 92 90 89 88 86 84 83 81 79 76 73 68 64 60 57 53 49 46 45 46 49 51 57 68 83 96 101 102 103 103 102 100 97 92 87 85 87 82 68 55 46 36 23 17 15 11 15 40
14 12 11 10 9 9 9 9 10 11 12 15 17 20 25 29 34 39 44 49 53 59 65 70 73 76 79 82 83 85 85 85 84 83 81 80 78 76 75 74 73 71 70 69 68 67 65 64 63 63 63 62 58 54 51 51 53 56 64 77 91 100 103 103 103 104 104 103 100 95 90 88 88 85 73 57 48 41 28 18 16 13 10 26 61
8 7 7 7 7 7 7 7 8 8 9 10 11 14 17 22 28 35 42 48 53 59 64 68 69 71 72 73 73 74 74 72 71 70 69 68 67 66 66 65 65 64 64 64 65 66 65 63 63 64 64 63 61 60 60 62 65 73 85 95 101 103 104 104 105 106 105 103 99 93 90 90 88 77 61 50 42 33 21 17 16 11 16 46 83
6 6 7 7 7 7 7 8 8 9 9 9 10 11 13 17 22 30 40 49 56 60 65 68 70 71 72 71 70 69 69 68 67 66 65 65 65 65 65 66 66 65 65 66 68 69 69 67 66 64 63 63 65 69 74 79 85 93 99 101 101 103 105 105 106 106 105 102 96 93 93 91 80 65 53 44 35 24 19 16 12 12 34 71 99
6 7 8 7 8 8 8 8 9 10 10 10 11 11 11 14 18 26 38 50 60 66 69 71 73 74 75 74 72 71 70 69 68 67 67 66 67 67 68 69 69 69 69 69 69 69 70 70 70 70 70 72 77 83 90 95 98 101 101 100 101 103 102 102 104 106 104 99 96 95 93 83 67 54 46 37 26 20 18 14 11 26 59 91 104
8 9 9 9 9 9 9 10 11 11 12 13 13 12 12 13 17 24 36 50 63 72 76 78 79 79 79 78 76 75 73 71 70 70 70 71 72 73 73 72 72 72 72 71 71 72 73 75 77 80 83 86 91 96 99 100 101 100 100 100 102 101 99 100 104 105 101 98 98 96 85 69 55 47 39 29 21 20 16 11 21 52 85 101 102
11 11 11 11 12 12 13 13 14 14 15 16 15 15 15 15 18 24 36 52 68 79 84 86 86 84 83 82 80 78 75 74 73 74 75 77 77 76 76 75 75 74 74 75 76 77 79 82 86 91 94 97 100 101 100 100 100 100 101 101 100 100 101 103 105 102 100 100 98 86 69 55 48 41 31 23 20 17 10 15 43 79 100 102 99
16 16 15 15 15 16 17 17 18 19 19 19 19 18 17 17 19 26 40 61 79 89 91 92 92 90 88 85 83 80 77 77 78 79 80 80 79 77 78 79 80 80 81 82 84 87 90 93 97 99 100 101 101 100 100 100 100 100 100 101 100 99 102 104 104 102 101 99 88 70 55 48 43 34 25 22 19 11 11 33 70 96 102 100 98
24 23 22 21 20 21 22 22 23 24 24 24 24 22 20 20 22 30 47 72 92 100 100 98 97 95 92 89 85 82 81 82 83 84 83 81 81 81 82 84 86 89 91 93 95 97 99 101 101 101 101 100 100 100 100 100 101 101 101 100 99 100 103 104 104 103 99 89 72 55 47 43 35 27 23 20 13 10 27 63 93 102 100 101 101
31 31 30 29 27 27 26 26 28 29 29 30 30 27 25 24 27 36 56 82 100 106 106 104 102 99 97 92 87 85 86 88 88 87 85 84 85 86 88 91 95 97 99 101 102 102 102 101 101 100 100 100 100 100 100 100 101 101 100 99 100 102 104 105 104 100 88 71 56 48 44 37 28 24 22 15 10 23 57 90 103 102 100 101 101
38 38 38 36 34 33 31 31 32 33 34 35 35 32 30 30 32 42 65 90 103 105 106 107 106 103 99 94 90 90 92 92 90 89 88 89 90 93 96 99 102 103 104 104 103 101 100 100 100 100 100 101 100 100 101 101 101 99 99 100 102 104 105 105 100 88 70 56 48 44 37 29 24 23 18 11 20 50 85 102 103 101 101 101 100
44 45 44 43 42 39 36 35 36 38 39 41 40 37 35 35 38 50 74 95 103 101 101 105 107 104 99 95 95 96 96 94 93 92 93 94 97 100 102 104 105 104 103 102 102 102 101 101 101 100 100 100 100 100 101 100 99 100 101 103 104 105 105 99 87 69 55 48 45 38 30 26 25 19 12 18 46 80 101 104 101 101 102 100 99
Wind_Speed
24 24 25 26 27 27 26 27 28 30 32 33 32 33 33 33 33 33 33 32 29 27 28 29 30 31 30 28 27 27 27 26 26 26 26 25 25 25 25 25 25 25 25 25 25 25 25 25 25 25 25 25 25 25 25 25 25 26 26 26 26 27 27 27 28 28 28 28 28 28 28 29 29 30 30 31 31 32 32 32 32 32 32 33 33
25 24 25 26 27 27 27 27 28 29 31 32 31 30 29 29 30 30 30 29 26 26 28 28 28 30 30 28 28 27 27 27 27 26 26 26 26 26 25 25 25 25 25 25 25 25 24 24 24 24 24 24 24 24 24 24 24 24 25 25 25 26 26 27 27 28 28 28 29 29 30 30 30 31 31 31 32 32 33 33 33 33 33 33 34
26 26 25 26 27 28 28 28 28 29 31 32 32 30 28 27 28 29 29 28 26 26 28 28 27 28 29 28 28 28 28 28 27 27 27 27 26 26 26 26 25 25 25 24 24 23 23 23 22 22 22 22 22 22 22 22 23 23 24 24 25 25 25 26 27 27 28 29 29 30 30 31 31 31 32 33 33 34 34 34 34 34 34 33 33
27 27 26 26 26 28 28 29 29 30 31 33 34 33 31 31 31 31 30 29 28 28 29 28 27 27 28 28 28 28 29 28 28 28 28 27 27 27 27 27 26 25 24 24 23 22 22 21 21 21 20 20 21 21 21 22 22 23 23 24 24 25 25 26 27 27 28 29 30 31 31 32 32 32 32 33 34 35 36 36 35 34 35 35 34
27 27 27 27 27 27 28 29 29 29 30 33 34 34 34 33 34 33 32 31 30 30 30 29 26 26 27 27 28 29 29 29 29 28 28 27 27 27 27 27 26 26 24 24 23 22 21 21 20 20 20 20 20 20 21 21 22 22 23 24 24 25 26 26 27 28 29 29 30 31 32 33 33 34 33 33 33 33 35 36 37 36 35 35 35
29 29 28 28 28 28 28 28 28 29 31 32 34 34 34 34 34 34 34 34 31 30 31 29 27 25 26 26 27 28 29 29 28 27 27 27 27 27 27 27 26 25 24 23 23 22 21 21 20 20 20 20 20 20 21 21 22 23 23 24 25 25 26 26 27 28 29 29 30 30 31 32 33 34 34 34 33 32 31 32 35 37 37 37 36
32 31 30 29 29 28 28 29 30 31 31 32 33 34 34 34 34 35 36 37 35 32 31 31 28 25 25 25 26 27 28 28 27 26 26 26 27 27 27 27 26 25 24 23 22 21 21 20 20 20 20 20 21 21 22 22 23 23 23 24 24 25 25 26 26 27 28 29 30 31 31 32 33 34 35 36 36 36 34 32 31 32 35 37 37
34 33 32 31 30 28 28 30 32 32 32 32 33 34 34 35 36 36 37 38 37 34 32 32 29 26 25 25 25 26 27 26 26 25 25 26 26 27 27 27 26 25 24 23 22 21 21 20 20 20 20 21 21 21 22 22 22 22 22 23 23 24 24 25 26 27 28 29 30 32 33 33 34 35 36 37 37 37 37 36 34 31 31 33 36
35 34 33 32 31 30 29 30 32 32 32 32 33 35 37 38 39 38 37 39 38 34 31 31 29 26 25 25 24 25 25 25 24 24 25 25 26 26 27 27 26 26 24 23 22 21 21 20 20 20 21 21 21 21 21 22 22 22 22 23 23 24 25 26 27 28 29 30 31 32 34 35 35 35 35 36 37 37 37 37 36 35 33 32 34
36 35 34 32 32 32 31 30 32 33 33 33 35 37 39 40 39 39 39 39 37 33 31 30 28 27 26 25 24 24 24 24 24 24 25 25 25 26 26 26 26 26 25 24 23 22 21 21 21 21 21 21 21 21 22 22 22 23 23 23 24 25 26 27 28 29 30 31 32 32 34 35 36 36 36 36 37 38 38 38 37 36 35 33 31
37 37 35 34 32 32 32 30 31 33 35 35 36 39 40 40 40 39 40 39 36 34 32 30 28 28 27 25 24 23 23 23 24 25 25 25 26 26 27 27 26 26 25 24 23 22 22 21 21 21 21 21 21 22 22 23 23 23 23 23 24 25 26 28 29 30 31 32 33 33 34 35 36 36 36 37 37 37 38 38 38 37 36 35 33
38 37 37 35 33 32 33 32 31 32 35 37 39 39 40 40 40 40 40 39 36 34 33 31 30 29 28 25 24 23 23 23 24 24 25 25 26 27 28 28 27 26 25 25 24 23 23 22 22 22 22 22 22 23 23 23 23 23 23 24 24 26 27 28 30 31 32 33 34 34 34 34 35 36 36 36 36 37 37 38 38 38 37 37 36
37 37 37 37 35 33 33 33 33 32 34 37 39 39 40 40 40 40 40 38 37 35 34 32 31 30 28 25 24 22 22 23 24 24 25 26 27 28 28 28 28 27 26 25 25 24 24 23 23 22 23 23 23 24 24 24 24 24 24 25 25 26 28 29 30 32 32 33 34 34 35 35 36 36 37 37 37 37 37 36 37 37 36 36 36
37 37 37 37 36 35 34 34 34 33 34 35 37 38 39 39 40 40 39 38 38 36 35 34 32 29 27 25 24 23 22 23 24 26 26 26 27 29 29 29 29 28 27 26 25 25 25 24 24 24 24 24 24 24 25 25 25 24 25 25 26 27 28 30 31 33 33 34 34 35 36 36 37 37 37 38 38 37 37 36 35 35 34 34 33
38 38 37 37 37 36 35 35 34 34 35 35 36 37 38 39 40 40 39 39 39 36 35 34 32 29 28 26 25 24 24 25 26 27 27 27 28 29 29 29 30 29 28 27 26 26 25 25 25 25 25 25 25 25 26 25 25 25 25 26 27 28 29 31 33 33 34 35 35 35 36 36 37 37 37 37 37 36 37 37 36 35 34 32 31
40 39 38 38 37 37 36 36 35 35 35 35 35 36 37 39 39 39 39 40 39 37 36 35 33 31 29 27 27 27 27 27 28 28 28 28 28 28 29 30 30 30 29 28 27 26 26 26 26 26 26 26 26 27 27 27 27 27 27 27 28 29 30 32 33 34 34 35 35 36 36 37 37 37 37 38 37 36 36 36 36 36 35 33 31
42 41 39 38 38 38 37 37 36 36 35 34 35 36 38 38 38 38 39 40 39 38 37 35 34 32 31 29 29 29 29 28 28 28 29 28 28 28 29 30 31 31 30 29 28 28 27 27 27 27 27 27 27 28 28 28 28 28 28 28 29 30 31 32 34 35 35 35 35 36 37 37 37 37 37 37 37 37 36 36 36 36 35 35 33
42 41 40 38 38 38 38 38 37 36 35 34 34 35 37 38 38 39 40 40 40 39 37 36 34 34 32 31 31 30 30 29 28 28 29 28 27 28 29 30 31 31 31 30 29 29 28 28 28 28 28 27 28 29 29 29 29 29 29 29 30 31 32 33 34 35 35 36 36 37 37 37 37 37 36 36 36 36 36 36 36 36 35 35 35
42 42 41 40 39 38 38 38 37 36 35 34 33 34 36 37 38 40 41 42 42 40 38 37 36 35 34 33 32 31 31 31 30 30 30 29 28 28 29 31 31 32 32 32 31 30 29 29 29 29 29 28 29 30 30 30 30 30 30 30 30 31 33 34 34 35 35 36 37 37 38 38 37 37 36 36 35 35 35 35 36 36 36 34 34
43 42 41 41 40 40 40 39 38 36 35 34 33 34 35 36 38 41 43 44 43 42 40 38 37 36 35 35 34 33 33 33 32 32 32 31 31 30 30 31 32 33 34 33 32 31 30 30 30 30 29 29 29 30 31 31 31 32 31 31 31 32 33 34 34 34 35 36 36 37 38 38 37 37 35 34 34 34 34 35 35 36 36 34 32
44 43 42 41 41 40 40 41 40 37 35 34 33 34 35 36 39 42 44 45 45 44 42 40 38 37 37 36 36 35 35 35 35 35 35 35 34 33 32 32 33 34 35 34 34 33 32 31 31 31 30 30 30 31 31 31 32 32 32 32 32 33 34 34 34 35 35 36 36 37 38 37 36 36 35 34 34 33 33 34 35 35 35 33 32
44 44 44 43 42 41 40 41 41 39 37 35 34 35 36 38 41 43 45 47 47 46 44 42 40 40 39 38 38 37 37 37 37 37 37 37 37 36 35 34 35 35 35 36 35 34 33 32 32 32 31 31 30 31 32 32 32 32 32 33 33 34 34 34 34 34 35 36 36 37 37 37 35 34 34 33 33 33 33 34 35 35 33 32 32
46 46 46 45 44 42 41 40 40 40 38 36 36 38 40 41 43 45 47 48 48 47 46 44 43 42 41 41 41 40 40 40 40 40 40 39 39 39 37 36 36 37 37 37 37 35 33 33 32 32 32 31 31 31 32 32 33 33 33 33 34 34 35 35 34 34 35 36 36 36 37 36 35 33 32 32 32 32 32 33 34 33 31 30 31
48 48 48 47 45 43 41 40 39 39 39 38 39 41 42 44 45 47 49 50 49 49 48 47 46 46 45 44 44 44 43 43 43 42 42 42 42 41 40 38 38 38 38 39 39 37 34 33 32 32 31 31 31 32 32 33 33 33 34 34 34 35 36 35 35 35 36 37 36 36 36 35 34 33 32 31 31 30 30 31 32 31 29 28 29
50 49 48 47 45 43 41 39 39 39 40 40 41 42 43 44 46 48 49 50 50 50 49 49 49 48 47 47 46 46 46 46 45 44 43 43 43 43 43 41 40 39 40 40 40 39 36 34 32 32 32 32 32 32 33 33 33 33 34 34 35 36 36 35 35 36 37 37 36 35 35 34 33 33 32 30 30 30 30 29 29 28 27 27 27
49 48 47 45 44 42 40 38 38 39 40 41 41 42 44 45 47 48 48 49 49 49 49 49 49 48 48 48 48 48 47 46 45 45 44 44 44 44 44 43 42 40 40 41 41 39 37 35 33 32 32 32 33 33 33 33 34 34 34 35 35 35 35 35 35 36 37 36 35 34 34 33 32 32 31 30 30 30 30 28 27 26 26 26 24
45 44 43 42 40 39 37 36 36 37 38 39 39 40 42 43 45 46 46 47 47 48 48 48 48 48 48 49 48 48 47 46 45 45 44 44 44 44 44 43 43 42 41 41 40 39 37 35 34 33 33 33 33 33 34 34 34 34 35 35 35 35 35 35 36 37 37 35 33 33 32 31 31 30 29 29 30 30 30 29 26 24 25 25 24
41 40 38 37 36 35 34 34 34 35 36 36 37 37 38 40 41 43 44 45 45 46 46 46 47 47 48 48 48 47 46 46 45 45 44 44 44 43 43 43 43 43 42 41 40 39 38 36 34 34 34 34 34 34 34 34 35 34 34 34 35 35 35 36 36 37 36 34 32 31 30 30 30 29 28 28 29 30 30 29 26 25 25 26 25
38 37 35 34 33 32 32 32 32 33 34 35 36 36 37 37 38 39 40 42 42 44 45 45 46 46 46 46 46 46 45 45 45 44 44 44 44 43 42 41 41 41 41 41 40 40 39 37 35 34 34 34 34 34 34 34 34 34 34 34 34 34 35 36 37 37 35 32 30 29 29 28 28 28 27 27 28 30 30 28 26 25 26 26 26
36 35 35 34 33 33 33 33 33 34 35 35 36 36 37 37 38 38 39 40 40 41 42 43 43 44 44 44 44 44 44 44 43 43 43 43 42 41 40 40 40 40 40 39 39 39 39 38 36 35 35 35 34 34 34 34 34 33 33 33 33 34 35 36 37 36 33 30 29 28 28 27 27 27 26 26 27 28 28 27 26 26 25 25 26
36 36 36 35 35 36 36 36 36 37 37 38 38 38 38 38 38 39 39 39 40 40 41 41 42 42 42 42 42 42 42 42 42 41 40 40 40 40 39 39 39 38 38 38 38 38 38 38 37 36 36 35 34 34 34 33 33 32 32 32 33 34 35 36 36 34 31 28 28 28 27 26 25 25 26 26 26 26 26 25 25 25 25 26 26
38 37 37 37 37 37 37 38 38 38 39 39 39 40 40 39 39 39 40 40 40 40 40 41 41 41 41 41 41 41 41 41 41 40 40 39 39 39 39 39 39 39 38 38 37 36 36 37 36 36 36 35 35 34 33 32 32 31 31 32 32 33 34 35 33 31 28 27 27 27 26 25 25 24 25 26 26 24 23 23 24 24 24 25 26
40 40 40 39 39 39 39 40 40 40 40 40 41 41 41 41 41 40 39 40 40 41 41 40 40 40 40 40 40 40 40 40 40 40 40 40 39 39 39 39 39 39 39 39 37 35 34 34 35 34 34 34 33 33 32 31 31 30 30 31 31 33 34 33 31 28 26 26 26 25 24 24 24 23 24 25 25 23 22 22 23 23 24 25 25
42 43 43 43 42 42 42 42 42 42 43 43 43 43 42 42 42 41 40 39 38 39 40 40 40 39 38 38 38 39 39 39 39 39 39 39 39 39 38 38 38 37 38 38 37 35 33 33 33 33 33 32 32 31 30 30 30 29 29 30 30 31 32 31 29 26 25 25 25 24 23 23 23 22 23 24 24 22 22 22 22 23 24 25 25
44 45 45 45 45 44 44 44 43 43 43 43 43 43 42 42 42 41 41 39 38 37 37 38 38 39 38 37 37 36 36 36 36 37 37 37 37 37 37 36 36 36 36 36 36 35 34 33 32 33 32 32 31 30 29 29 28 29 29 29 30 30 29 28 26 24 24 24 23 22 22 22 21 22 22 22 22 21 21 22 22 23 24 25 24
46 46 46 46 46 45 44 44 43 43 43 42 42 41 41 40 40 39 39 39 38 36 35 35 35 36 36 36 35 34 34 34 34 34 35 35 35 35 35 35 35 34 35 35 34 34 34 33 32 32 32 31 30 29 28 28 28 28 29 29 28 28 27 25 24 23 23 23 22 21 21 20 21 21 21 21 21 20 20 20 21 23 24 24 23
46 46 45 45 45 44 44 43 43 42 41 41 40 40 39 39 38 38 37 37 36 36 35 34 33 33 34 34 34 34 33 33 33 33 33 34 34 34 34 34 34 33 33 33 33 33 32 32 32 31 31 30 30 29 28 28 27 27 28 28 27 26 25 23 22 21 21 21 20 19 19 19 20 20 20 20 20 19 20 21 22 22 23 24 23
45 45 44 44 43 43 42 41 41 40 40 39 39 38 37 37 36 36 36 36 35 35 35 34 34 33 33 33 33 33 33 33 33 33 33 33 34 34 33 33 33 33 33 32 32 32 31 31 31 30 30 30 29 29 28 27 27 27 27 26 25 24 23 21 21 20 19 19 19 18 18 19 19 19 19 19 18 18 19 21 22 22 22 22 22
45 44 43 43 42 42 41 40 39 39 39 38 38 37 37 36 36 35 35 35 34 34 34 34 34 34 34 33 33 33 33 33 33 33 33 33 33 33 33 33 32 32 32 31 31 31 30 30 30 30 29 29 29 28 27 26 26 26 25 24 23 22 21 20 19 18 17 17 17 17 17 17 18 18 18 18 17 17 19 20 22 22 21 21 21
44 44 43 43 42 41 41 40 39 39 38 37 37 37 36 36 35 35 34 34 34 34 34 34 34 34 33 33 33 33 32 32 32 32 32 32 32 32 32 32 32 32 31 31 30 30 29 29 29 29 28 28 27 27 26 25 25 24 23 22 21 21 20 19 17 16 16 16 16 16 16 16 17 17 18 17 16 17 19 20 21 22 22 22 22
43 43 42 41 41 40 40 39 38 38 37 37 37 36 35 35 35 34 34 34 33 33 33 32 32 32 32 32 32 31 31 30 30 30 30 30 30 29 30 30 30 30 29 29 29 28 28 28 27 27 27 26 25 25 25 24 23 22 20 19 19 19 18 17 15 15 15 15 15 15 15 15 16 16 16 16 16 18 19 20 21 21 22 23 23
42 41 40 39 39 38 38 37 37 37 36 36 36 36 35 35 34 33 33 32 32 32 31 31 31 30 30 30 30 29 28 28 27 27 27 27 27 27 27 27 28 28 27 27 27 27 27 26 26 25 24 23 23 23 23 22 21 20 18 18 17 17 16 15 13 13 14 14 14 14 14 15 15 15 14 15 16 17 19 20 20 21 22 23 24
39 39 38 37 36 36 36 35 35 35 34 34 34 34 34 34 33 32 32 31 30 30 30 29 29 28 28 28 27 26 26 26 25 25 25 25 25 25 25 25 25 25 25 25 24 24 24 25 24 23 22 22 22 21 21 20 19 18 17 16 16 15 14 13 12 12 12 13 13 13 13 14 14 13 14 14 15 17 18 19 19 21 22 23 24
37 36 35 34 34 33 33 33 33 33 32 32 32 32 32 32 32 31 30 29 29 28 28 28 27 26 26 25 25 24 24 24 24 24 24 24 23 23 23 23 23 23 23 22 22 22 22 22 22 22 21 20 20 19 18 17 17 16 15 14 14 13 12 11 11 11 11 12 12 12 12 13 12 12 13 14 15 16 17 18 19 20 21 23 24
34 33 32 31 31 31 31 32 31 31 31 31 31 31 31 31 31 30 29 28 27 26 26 26 25 24 23 23 22 22 22 22 22 22 22 21 21 21 21 21 20 20 20 20 20 20 20 20 20 20 19 18 17 16 16 15 14 14 14 13 12 11 10 10 11 11 11 11 11 11 11 12 12 12 13 14 15 16 17 18 19 20 21 22 24
31 30 30 29 29 29 29 30 30 30 30 30 30 30 30 29 29 28 27 26 25 24 24 24 23 22 21 21 20 21 21 21 21 20 20 19 19 19 19 19 19 19 19 19 18 18 18 18 17 17 17 16 15 14 13 13 13 13 12 11 10 10 10 10 10 10 10 10 9 10 10 11 11 12 13 14 15 15 16 18 19 21 22 23 24
29 29 28 28 28 28 28 29 29 29 29 29 29 29 28 28 27 27 26 25 23 23 22 22 21 20 20 19 19 19 19 19 18 18 18 18 17 17 17 17 17 17 17 17 16 16 16 15 15 14 14 13 13 12 12 12 12 11 10 10 9 9 9 9 9 9 9 8 8 9 9 10 11 12 13 14 14 15 16 18 19 20 22 23 24
28 27 27 27 27 28 28 28 29 29 29 29 29 28 28 27 26 24 24 23 22 21 21 20 19 19 18 18 18 18 17 17 17 16 16 16 16 15 15 15 15 15 15 14 14 13 13 12 12 12 12 11 11 11 11 11 10 10 9 9 8 8 8 8 9 8 7 7 7 8 9 10 11 12 13 13 14 15 16 16 18 20 21 23 24
27 27 27 27 28 28 28 29 29 29 29 28 28 28 27 26 24 23 22 21 21 20 19 18 18 17 17 17 17 16 16 15 15 15 15 15 14 14 13 13 13 13 12 12 11 10 10 10 10 10 10 10 10 10 10 9 9 9 8 7 7 8 8 8 7 6 6 6 6 7 8 10 11 12 12 12 13 15 16 16 17 19 20 21 23
26 26 27 27 28 28 29 29 29 29 29 28 28 27 26 25 23 22 20 19 19 18 17 17 16 16 16 16 15 15 15 14 14 14 14 13 13 12 12 11 11 10 10 9 8 8 7 7 7 8 8 8 8 8 9 9 8 8 7 7 7 8 7 6 5 5 5 6 6 7 8 10 11 11 12 12 13 14 16 17 18 20 20 20 22
26 26 27 27 28 28 29 29 29 29 29 28 28 27 25 23 22 20 19 18 17 17 16 16 15 15 15 14 14 14 13 13 13 12 12 12 11 10 10 9 9 8 7 6 6 5 5 6 6 7 7 8 8 8 8 8 7 7 7 7 7 6 5 4 4 4 5 5 6 7 8 10 11 11 12 12 13 14 15 17 19 20 20 21 22
Wind_Direction
307 299 294 291 289 288 288 290 292 293 296 300 305 307 310 315 319 319 318 319 321 320 323 330 336 338 338 337 336 336 335 335 334 333 332 331 329 327 325 323 322 320 319 317 316 316 315 315 314 314 314 314 314 315 315 315 315 316 317 317 317 318 318 319 319 319 319 319 318 317 317 317 316 316 316 315 315 314 314 313 312 311 310 309 308
314 305 297 293 292 289 288 289 290 291 293 298 304 310 315 321 323 321 319 319 319 320 322 327 333 336 336 336 334 333 333 333 332 332 331 331 330 329 327 326 324 322 321 319 318 316 316 315 315 315 315 315 315 316 316 316 317 317 318 318 319 320 321 321 321 320 320 320 320 320 320 320 319 318 318 317 316 315 314 313 312 312 311 310 309
318 312 303 296 292 290 288 287 287 288 290 293 299 305 312 316 318 319 319 319 319 320 321 324 329 332 333 333 332 330 329 329 329 329 329 329 329 328 328 327 325 324 322 320 318 317 316 315 315 315 315 316 316 317 317 318 319 319 320 321 321 322 323 323 322 322 322 322 322 322 322 321 320 320 319 318 317 315 314 313 312 312 311 310 309
318 315 308 299 294 291 288 286 285 287 289 291 293 297 302 306 310 314 317 318 317 317 319 320 324 328 329 329 328 327 326 326 326 326 327 327 328 328 327 327 326 324 323 321 320 319 318 317 317 317 318 318 319 320 320 321 322 322 323 324 324 324 325 325 324 324 324 324 324 324 323 322 321 321 320 319 318 316 315 314 313 312 311 310 309
317 315 311 303 296 291 289 287 286 287 288 289 290 293 297 300 304 309 311 313 313 313 315 315 317 322 325 325 324 323 323 322 323 324 324 325 326 327 327 327 326 324 323 322 321 320 320 320 320 321 321 322 323 323 324 324 325 325 326 326 327 327 327 327 327 327 326 326 326 325 324 323 321 321 320 320 319 317 316 315 314 313 311 310 308
318 316 313 308 301 293 288 285 284 284 285 286 288 290 294 298 301 304 305 307 309 311 311 310 311 316 319 319 320 320 320 320 320 321 322 324 326 327 327 326 325 324 322 322 322 321 322 322 322 323 323 324 325 326 327 327 328 328 328 329 329 329 329 329 329 328 328 328 327 326 325 324 322 321 320 319 317 316 315 315 314 314 313 312 310
315 314 313 310 305 297 287 281 279 279 282 285 286 288 292 295 296 298 300 302 305 306 306 306 307 309 312 314 315 316 316 317 317 318 320 322 325 326 326 326 324 323 321 321 321 321 321 322 323 324 325 326 327 328 329 329 329 330 330 330 331 331 331 331 331 331 330 330 329 328 327 326 324 323 322 321 320 319 318 316 315 313 312 311 310
313 311 309 309 306 299 289 281 277 278 280 282 284 286 287 287 288 291 295 298 300 300 299 300 301 303 305 308 310 312 313 314 315 316 318 321 323 325 325 325 323 321 320 320 319 319 320 321 322 324 325 327 328 328 329 329 329 330 331 332 332 333 333 334 334 334 333 333 331 330 329 328 327 326 324 323 322 320 319 317 315 312 310 309 307
315 312 309 307 304 299 292 283 278 277 277 277 278 279 280 281 285 289 292 294 297 297 295 295 297 297 300 303 305 307 308 310 313 315 318 321 322 323 324 324 322 320 318 317 317 318 318 319 321 323 324 326 327 328 329 330 331 331 333 334 335 335 336 336 336 335 334 333 332 331 330 329 328 327 325 323 322 319 318 316 315 313 312 311 310
317 315 311 307 304 301 296 287 279 275 274 274 274 275 277 280 284 287 289 292 295 296 293 292 293 294 295 298 300 301 302 306 310 313 316 319 321 322 322 322 321 319 317 315 314 315 315 316 318 320 322 325 328 329 330 330 330 331 332 334 335 336 335 335 335 334 333 333 332 331 330 328 327 326 324 323 321 319 318 316 315 314 312 312 311
316 315 312 308 304 301 297 291 281 275 272 271 272 273 275 278 281 284 287 290 293 295 291 288 290 291 291 293 295 295 297 301 305 310 314 317 320 321 321 320 320 318 316 313 311 311 311 313 315 318 322 326 328 328 327 327 328 329 329 331 333 334 334 334 333 333 332 331 330 329 328 327 326 325 324 322 320 319 317 316 315 314 314 313 313
315 314 312 308 304 301 297 293 285 277 272 269 269 271 273 276 279 282 285 288 291 291 287 285 287 287 286 288 289 291 293 298 302 307 311 314 318 320 319 318 317 316 314 312 309 308 308 310 312 316 320 323 324 324 323 323 324 325 326 327 329 330 331 331 331 330 329 328 327 327 326 326 324 324 323 322 320 318 317 316 316 316 317 317 316
315 312 309 308 304 300 297 294 288 282 275 271 269 270 271 274 277 280 283 286 287 286 283 281 281 281 282 284 284 286 290 295 301 306 308 311 314 316 317 316 314 313 312 310 308 307 306 308 310 314 317 319 320 319 319 319 320 321 322 324 326 327 328 328 328 327 327 326 326 326 326 325 324 324 323 322 320 319 317 316 316 316 317 317 316
315 311 307 305 303 300 297 294 290 285 279 274 271 270 271 273 276 278 281 283 283 282 280 279 277 277 279 280 280 282 287 293 299 304 306 308 310 312 314 314 312 311 310 308 306 305 305 306 307 310 313 315 316 315 315 315 315 317 319 321 323 324 325 326 326 325 325 325 325 325 325 324 324 323 323 322 320 319 317 316 316 316 317 317 316
314 312 308 303 300 298 296 293 291 288 283 278 274 272 272 273 275 277 279 281 281 280 279 277 275 275 275 275 276 279 285 290 296 301 303 306 307 309 311 311 310 308 307 306 304 303 303 304 305 307 309 311 312 312 311 312 312 314 316 318 320 322 323 324 324 323 323 323 324 324 323 323 323 322 322 321 319 318 317 316 316 316 316 316 317
312 311 310 305 300 297 295 293 291 289 286 282 278 275 274 274 276 277 279 280 279 278 278 276 275 274 274 274 275 279 284 289 294 297 300 303 305 305 307 308 307 306 304 303 302 301 301 302 302 304 305 307 309 308 308 309 310 311 313 315 317 318 320 321 322 322 322 322 323 323 322 321 322 321 320 320 318 317 317 317 317 317 317 317 318
310 310 310 307 303 298 294 293 291 289 287 284 280 277 276 276 277 278 279 279 278 277 277 276 275 274 273 274 276 279 283 287 290 294 296 300 302 303 303 304 304 303 302 301 300 299 299 299 300 301 303 304 305 305 306 306 307 309 311 312 314 316 317 319 320 320 321 321 321 321 320 319 320 319 319 318 317 317 317 317 317 318 318 318 317
310 309 309 308 306 302 297 293 291 289 287 284 281 278 277 277 277 276 276 276 276 276 277 277 277 275 275 275 277 280 283 285 287 290 293 297 300 301 302 302 302 302 300 298 297 297 297 297 297 298 300 301 302 302 303 304 305 306 308 310 312 313 315 317 318 319 320 320 319 318 317 317 317 317 317 316 316 316 316 317 318 318 320 321 318
310 309 308 307 306 304 300 296 292 289 287 284 280 278 278 277 276 275 274 274 275 276 276 277 278 277 276 277 279 281 283 284 285 288 291 294 298 300 300 301 301 300 298 296 294 293 294 294 294 296 297 299 299 300 301 302 303 304 306 309 310 312 313 315 316 318 318 318 318 317 316 316 316 315 315 315 315 315 316 317 318 319 321 322 319
309 308 306 305 305 303 301 298 294 289 286 283 281 279 278 278 277 276 275 274 274 275 275 276 277 277 277 278 279 281 283 285 286 288 290 292 295 298 299 300 299 298 296 293 291 290 290 290 291 293 295 296 297 298 299 300 301 302 305 307 308 310 311 313 314 316 317 316 316 315 314 314 314 313 313 313 312 313 315 317 319 320 321 322 321
308 306 304 303 302 300 299 297 294 290 286 283 281 279 278 278 277 275 274 274 274 274 274 275 276 276 276 277 279 281 283 285 287 288 289 290 292 295 297 297 297 296 293 290 288 287 287 287 288 290 292 293 295 296 297 298 299 301 303 305 307 308 309 311 313 315 315 314 314 313 312 312 312 311 311 311 311 313 315 317 319 320 321 321 321
306 305 304 302 301 299 296 294 293 291 287 282 280 278 276 275 274 273 272 272 273 273 274 274 275 276 276 277 279 280 282 285 287 287 287 288 289 291 293 294 294 293 291 287 285 284 284 285 286 287 289 291 293 294 295 296 298 299 301 303 305 307 308 310 312 313 313 312 311 311 310 310 310 310 309 309 309 313 316 318 320 320 321 321 321
305 304 304 303 302 299 295 292 291 290 287 283 280 278 276 273 272 272 271 272 272 273 274 274 275 276 277 278 279 280 281 284 286 286 285 285 286 288 290 291 291 291 289 285 282 280 280 281 282 284 287 289 291 293 294 295 296 298 300 302 304 305 307 309 310 311 310 310 309 309 308 308 309 308 306 306 308 312 315 317 319 319 319 320 321
304 304 304 303 302 300 296 293 289 287 285 282 279 278 277 275 273 272 272 272 273 273 274 275 275 276 277 278 279 280 281 283 285 285 284 284 285 286 288 288 288 288 286 283 280 277 276 277 278 281 284 286 289 290 292 293 295 297 299 300 302 304 306 307 309 309 309 308 308 307 306 307 307 306 304 305 306 310 314 316 318 318 318 320 322
304 304 303 303 302 300 297 293 289 285 283 280 279 279 279 277 275 274 274 274 274 275 275 276 277 277 278 279 280 281 282 284 284 284 283 283 284 286 287 287 287 286 284 281 278 276 275 275 276 278 281 283 285 287 289 291 293 295 297 299 300 303 305 306 307 308 307 306 306 306 305 306 306 304 304 305 306 308 312 316 317 317 318 320 322
305 304 303 302 301 300 297 293 289 285 283 281 280 279 279 278 277 276 276 276 277 278 278 279 279 280 280 281 281 282 283 283 283 283 283 283 284 284 285 285 285 284 281 278 276 275 274 274 274 276 278 280 282 284 286 288 290 293 295 297 300 303 305 305 306 307 306 306 305 304 304 305 304 303 303 304 306 308 312 316 317 317 316 318 320
305 304 304 303 302 300 297 293 289 286 286 286 285 283 282 281 279 279 279 279 279 280 280 281 281 281 281 281 282 282 282 282 282 282 282 282 282 282 283 284 285 283 280 276 274 273 272 272 273 274 275 277 279 281 284 286 289 291 294 297 300 303 304 304 305 306 305 305 304 303 303 303 302 302 302 304 306 309 313 316 317 316 315 316 317
306 305 305 304 304 302 300 296 292 289 289 291 292 291 289 287 284 283 281 281 281 281 281 281 281 281 281 281 282 282 282 282 282 282 282 282 282 282 282 282 282 281 278 275 273 272 271 271 271 272 273 274 276 278 281 284 287 290 294 297 300 302 302 303 304 305 304 304 302 301 301 301 300 301 301 303 306 310 313 315 317 317 316 316 317
307 307 306 306 305 304 302 299 295 293 293 294 295 295 294 292 290 288 286 285 284 284 283 283 283 283 283 283 283 283 283 283 283 283 283 283 282 282 281 280 278 276 275 273 272 271 270 270 270 270 271 272 274 276 279 283 286 290 294 297 300 301 301 302 303 303 302 302 300 299 299 299 299 300 301 303 306 309 313 315 316 316 317 317 317
306 306 306 305 304 302 301 299 297 297 296 296 296 295 295 294 292 291 290 289 288 287 287 286 286 285 285 285 286 286 285 285 284 284 284 283 282 281 280 278 276 274 273 273 272 271 270 269 268 268 269 270 272 274 278 281 285 289 293 296 298 299 300 301 302 301 301 300 299 298 298 298 299 299 300 302 306 309 312 313 314 315 316 316 317
304 304 304 303 302 301 300 299 298 298 297 297 297 296 295 295 293 292 292 291 290 289 289 288 288 288 288 287 287 287 287 286 285 284 283 282 281 280 278 276 275 273 272 272 271 270 269 269 268 267 267 268 270 273 276 280 285 289 292 295 296 297 298 299 300 300 299 298 297 296 296 297 298 297 298 300 304 308 310 311 312 315 316 317 319
304 304 303 303 303 302 301 300 299 298 298 297 297 296 296 295 294 294 293 292 292 291 290 290 289 289 289 288 287 286 286 285 285 284 282 281 280 278 277 276 275 273 272 271 269 267 266 265 265 266 266 268 270 273 276 281 285 288 291 293 293 295 296 297 297 297 296 295 293 293 294 295 296 296 297 300 304 307 309 309 311 313 315 316 320
304 304 304 304 304 303 303 302 301 300 299 298 297 297 296 296 295 295 295 294 294 293 293 292 292 291 290 289 288 287 286 285 284 283 282 280 279 278 276 276 275 274 273 272 269 267 265 264 264 264 266 267 270 273 277 281 284 287 289 290 291 292 293 294 295 294 293 291 290 291 292 293 293 294 297 301 305 308 308 309 311 313 314 316 321
304 304 304 304 303 303 302 301 300 300 299 298 297 297 296 296 296 295 295 295 295 295 295 294 294 293 292 291 290 289 288 286 285 284 282 281 280 278 277 276 275 274 273 272 271 269 268 268 267 267 268 270 271 274 277 280 283 285 287 287 287 288 290 291 292 292 290 288 289 290 291 290 291 294 298 303 306 307 309 310 312 313 314 317 322
304 304 303 303 303 302 301 300 300 299 298 298 297 297 296 296 296 296 295 295 295 295 294 294 293 293 292 291 290 289 288 287 286 284 283 282 281 279 278 277 275 274 273 273 271 270 270 271 271 271 272 273 274 276 278 280 283 284 284 284 285 286 287 289 289 288 287 287 287 288 288 289 291 295 300 303 304 305 307 309 311 313 315 319 324
305 304 304 303 303 302 302 301 301 300 299 299 298 298 298 298 297 297 297 296 296 295 294 293 292 291 291 290 290 289 288 287 286 284 284 283 281 280 279 277 276 275 274 274 273 273 272 273 273 273 274 275 276 277 279 280 281 282 282 282 283 284 285 286 285 284 284 285 285 285 286 287 291 296 301 302 302 304 307 309 312 315 317 321 326
304 304 304 304 303 303 303 302 302 301 301 300 300 300 299 299 299 298 298 297 297 296 295 293 292 291 291 291 290 290 289 288 287 286 285 284 283 282 280 279 278 276 276 275 275 274 274 274 274 275 275 276 276 277 278 279 279 279 279 280 281 282 283 283 281 281 282 282 282 282 283 286 292 297 299 300 301 306 309 310 312 316 319 323 330
304 304 304 303 303 303 303 303 302 302 302 301 301 301 300 300 299 299 298 298 297 296 295 294 293 292 291 291 291 291 290 289 288 287 286 284 284 283 281 280 279 277 276 276 275 274 274 274 274 274 274 274 275 275 276 277 277 276 277 278 279 280 280 278 278 279 279 278 278 278 281 287 293 296 297 298 302 307 309 310 312 316 321 327 332
305 305 304 304 304 304 304 303 303 302 302 301 300 300 299 299 298 298 297 297 296 295 295 294 294 293 293 292 291 291 290 289 288 288 287 286 285 284 283 281 280 278 277 276 274 274 273 272 272 272 272 272 273 274 274 274 274 273 274 276 277 277 275 274 275 276 274 273 273 275 281 288 293 295 296 299 304 307 308 311 315 318 323 330 335
305 305 305 305 305 305 304 304 303 302 301 300 300 299 299 298 298 297 297 296 295 295 294 294 293 293 293 292 291 291 290 290 289 289 288 287 287 286 285 283 282 280 279 277 276 274 273 272 272 272 272 272 273 273 273 272 270 270 272 274 274 273 271 271 272 271 269 268 270 274 282 289 293 294 297 301 305 307 310 313 317 321 326 333 338
306 306 306 306 305 305 304 304 303 302 301 301 300 299 298 298 297 296 296 295 295 294 294 293 293 293 293 293 292 292 292 291 291 290 289 288 287 286 284 283 282 281 280 278 277 276 275 273 272 272 272 273 272 271 270 269 268 269 270 270 269 267 267 268 267 264 263 264 269 277 284 289 290 293 297 302 306 309 313 316 320 325 330 336 340
307 307 307 306 306 306 305 305 304 304 303 302 302 301 299 298 297 296 295 295 295 294 293 293 293 293 293 293 293 293 293 292 292 290 289 288 287 286 284 283 283 282 280 279 278 277 276 274 273 272 272 270 268 267 267 267 267 268 268 266 264 263 263 261 258 256 258 262 270 278 284 287 290 293 297 301 306 310 314 317 322 328 333 337 341
308 308 308 308 308 307 307 306 306 306 305 304 303 302 301 300 298 297 296 295 294 294 293 292 293 293 293 293 294 294 294 293 293 292 291 290 290 289 288 287 285 284 282 280 278 276 275 274 272 271 269 266 263 263 263 264 266 267 265 261 258 257 256 253 250 250 255 263 272 279 284 286 289 293 297 302 308 312 315 320 326 331 335 339 343
309 309 309 310 310 309 309 309 309 308 307 306 305 304 302 301 299 297 296 295 294 293 292 292 292 293 293 293 293 294 293 293 294 294 294 294 293 292 291 289 287 284 282 279 276 273 270 269 268 267 265 263 262 262 262 263 263 261 257 253 250 247 245 244 244 249 257 266 274 280 283 285 288 293 298 304 311 315 318 323 329 333 338 342 347
310 311 312 312 312 312 311 311 311 310 310 309 308 306 304 302 300 298 296 295 293 292 291 291 292 292 292 292 292 293 293 295 296 296 297 296 295 293 292 289 286 282 279 276 273 269 266 264 263 262 262 262 261 260 260 258 255 251 247 243 238 235 234 236 242 250 260 269 275 280 282 284 289 296 302 308 313 317 321 327 331 336 341 347 352
312 313 314 314 314 314 314 314 314 313 313 312 311 309 306 304 301 299 296 294 293 291 290 291 292 292 292 291 291 293 294 296 297 297 297 296 294 293 291 289 286 283 279 275 272 269 266 263 261 259 258 258 257 255 252 248 244 240 236 231 225 225 229 235 244 255 263 270 275 278 281 286 293 299 305 310 315 321 327 331 335 339 345 351 356
315 315 316 316 317 317 317 317 316 316 315 314 312 310 308 305 302 299 296 294 292 291 291 291 292 292 292 292 292 294 296 297 297 297 296 296 294 293 291 289 286 284 280 276 273 270 267 263 260 256 253 250 248 244 240 236 233 228 222 217 217 221 229 239 250 259 265 268 272 274 280 288 295 300 306 313 320 326 331 334 338 344 349 354 356
316 317 317 318 319 319 319 319 319 318 317 316 315 313 310 306 303 298 295 292 291 291 291 291 291 291 292 293 295 296 297 297 297 297 297 297 296 294 292 290 287 284 281 277 274 270 267 261 255 250 246 242 239 235 230 224 218 213 209 210 214 223 234 245 254 260 262 262 266 273 281 290 295 300 309 319 325 330 333 337 343 350 355 356 355
316 317 318 319 320 321 321 321 320 320 319 318 317 315 311 308 303 298 293 290 290 290 290 290 290 291 292 294 296 297 297 297 298 298 299 299 298 296 294 292 288 285 282 278 273 269 263 256 249 242 237 233 228 223 216 208 201 199 201 208 218 230 241 248 253 256 255 258 266 276 284 290 297 305 315 324 330 332 335 343 352 358 359 357 354
316 317 318 319 320 321 322 322 321 321 321 320 319 317 313 309 304 298 292 289 289 289 289 288 288 290 292 295 296 296 297 298 299 300 301 301 301 299 297 296 293 289 285 278 271 263 254 245 236 228 222 218 213 205 198 192 189 192 200 211 224 236 244 246 245 245 248 258 269 279 288 295 304 313 322 330 334 336 340 350 359 1 1 359 356
316 317 318 318 320 321 322 322 322 322 322 321 321 319 315 309 303 297 291 288 288 288 287 287 287 289 292 294 294 295 297 298 300 303 304 304 304 303 302 301 298 293 286 276 263 248 233 222 214 207 202 199 194 188 185 184 186 194 205 218 231 238 238 232 231 235 245 262 276 284 293 304 313 321 327 332 335 341 349 358 2 3 1 359 357